Location: Cabrera Baja
(40.4089°N, 4.3354°W)
Time: 03:09:27
(UTC+00:00)

Meteor 1-14 Rocket - Pass Details

Date: 14 July 2020
Orbit: 834 x 918 km, 81.3° (Epoch: 03 August)

Event Time Altitude Azimuth Distance (km) Brightness Sun altitude
Exits shadow 02:04:57 49° 246° (WSW) 1,074 4.4 -23.6°
Maximum altitude 02:05:53 56° 283° (WNW) 1,004 4.4 -23.5°
Drops below altitude 10° 02:11:25 10° 1° (N) 2,498 7.5 -23.1°
Sets 02:13:56 0° 6° (N) 3,450 8.5 -22.8°
